Regional Weather Roundup
Issued by NWS

Home | Current Version | Previous Version | Graphics & Text | Print | Product List | Glossary Off
Versions: 1 2 3 4 5 6 7 8 9 10 11 12 13 14 15 16 17 18 19 20 21 22 23 24 25 26 27 28 29 30 31 32 33 34 35 36 37 38 39 40 41 42 43 44 45 46 47 48 49 50

000
ASUS45 KTFX 110710
RWRMT
MONTANA REGIONAL WEATHER ROUNDUP
NATIONAL WEATHER SERVICE GREAT FALLS MT
1200 AM MST THU FEB 11 2016

NOTE: "FAIR" INDICATES FEW OR NO CLOUDS BELOW 12000 FEET WITH NO
SIGNIFICANT WEATHER AND/OR OBSTRUCTIONS TO VISIBILITY.

MTZ001>007-043-110800-
WEST OF THE DIVIDE

CITY           SKY/WX    TMP DP  RH WIND       PRES   REMARKS
KALISPELL      CLOUDY    33  30  88 S3        30.19R
MISSOULA       CLOUDY    35  31  85 CALM      30.25S
BUTTE          CLOUDY    29  21  72 VRB5      30.21S
MULLAN PASS    CLOUDY    34  30  85 VRB6      30.24R WCI  29
ANACONDA         N/A     45  21  39 S9        30.20R
DEER LODGE       N/A     37  25  60 NE5       30.19S
HAMILTON         N/A     46  27  46 SW6       30.24S
LIBBY            N/A     32  28  86 N3        30.24R
PLAINS           N/A     36  32  85 CALM      30.23R
THOMPSON FALLS   N/A     35  32  89 CALM      30.28R
$$

MTZ008-052>055-110800-
SOUTHWEST MONTANA

CITY           SKY/WX    TMP DP  RH WIND       PRES   REMARKS
BOZEMAN        CLOUDY    33  29  85 N5        30.19S
DILLON         CLOUDY    36  26  67 SW15      30.24R WCI  27
ENNIS          MOCLDY    37  25  60 S23G29    30.29R WCI  26
THREE FORKS      N/A     32  32 100 CALM      30.14S
TWIN BRIDGES     N/A     39  24  55 E12       30.19S WCI  32
$$

MTZ009-010-012-014-046-048-049-054-110800-
EAST SLOPES AND CENTRAL MONTANA

CITY           SKY/WX    TMP DP  RH WIND       PRES   REMARKS
CUT BANK       PTCLDY    44  28  53 W18       30.02R
GREAT FALLS    CLOUDY    49  26  41 SW14      30.03S
MALMSTROM AFB  CLOUDY    51  27  38 SW22G30   30.03S
HELENA         CLOUDY    32  27  81 N3        30.16R
CHOTEAU          N/A     54  30  40 W15G31    30.04S
CONRAD           N/A     51  33  50 SW5       30.05R
$$

MTZ011-013-016-021-045-047-050-051-110800-
NORTH CENTRAL MONTANA

CITY           SKY/WX    TMP DP  RH WIND       PRES   REMARKS
HAVRE          CLOUDY    33  31  92 E6        29.99S WCI  28
LEWISTOWN      CLOUDY    41  29  62 SW12      30.01F
N BAR RANCH      N/A     41  23  48 CALM      30.02F
CHINOOK          N/A     32  30  93 E9        30.01R WCI  24
$$

MTZ017>020-022>027-061-062-110800-
NORTHEAST MONTANA

CITY           SKY/WX    TMP DP  RH WIND       PRES   REMARKS
GLASGOW        CLOUDY    30  26  85 SE10      30.06F WCI  21
JORDAN           N/A     32  31  96 E6        30.05F WCI  26
SIDNEY         CLOUDY    30  25  80 CALM      30.13S
WOLF POINT     CLOUDY    32  26  78 NE7       30.10F WCI  26
PLENTYWOOD       N/A     25  21  86 CALM      30.12F
POPLAR           N/A     28  25  86 E7        30.11F WCI  21
SCOBEY           N/A     25  18  74 N3        30.06F
$$

MTZ028>42-056>058-110800-
SOUTHCENTRAL AND SOUTHEAST MONTANA

CITY           SKY/WX    TMP DP  RH WIND       PRES   REMARKS
BAKER          CLOUDY    31  26  82 SE7       30.08F WCI  24
BILLINGS       CLOUDY    50  21  32 SW12      30.04F
LIVINGSTON     CLOUDY    50  21  32 W22       30.13R
MILES CITY     CLOUDY    32  29  88 SE8       30.06F WCI  25
EKALAKA          N/A     29  25  85 SE7       30.02F WCI  22
FORSYTH          N/A     32  30  93 E5        30.04F
LAUREL           N/A     45  21  38 SW2       30.03F
ROUNDUP          N/A     38  25  60 CALM      29.92F
$$

REGIONAL REPORTS...DAKOTAS

CITY           SKY/WX    TMP DP  RH WIND       PRES   REMARKS
WILLISTON      CLOUDY    26  21  81 SE3       30.14R
MINOT          CLOUDY    14   6  70 S6        30.17F WCI   5
DICKINSON      CLOUDY    24  22  91 E5        30.08F
BEACH          CLOUDY    30  28  93 CALM      30.11F
CROSBY         CLOUDY    19  19 100 CALM      30.17S
TIOGA          CLOUDY    18  18 100 S8        30.18R WCI   7
WATFORD CITY   CLOUDY    25  21  86 E3        30.14R
BISMARCK       CLOUDY    17  11  77 SE6       30.19F WCI   9
GRAND FORKS    CLOUDY     1  -4  79 CALM      30.30F
FARGO          CLOUDY     5  -2  72 N3        30.29F
BUFFALO SD       N/A     32  28  85 S6        30.03F WCI  26
RAPID CITY     CLOUDY    29  27  92 S5        30.13S
$$

REGIONAL REPORTS...WYOMING/IDAHO/WASHINGTON

CITY           SKY/WX    TMP DP  RH WIND       PRES   REMARKS
GILLETTE       CLOUDY    36  26  67 CALM      30.06F
SHERIDAN       CLOUDY    33  25  72 CALM      30.06F
BUFFALO WY     CLOUDY    43  22  43 S6        30.07F
CODY           CLOUDY    48  18  29 W10       30.12F
YELLOWSTONE LA   N/A     22  18  85 CALM      30.33F
IDAHO FALLS    CLOUDY    17  12  80 CALM      30.40S
SALMON         CLOUDY    18  16  93 N3        30.38F
BOISE          PTCLDY    31  29  92 CALM      30.42S FOG
SPOKANE        CLOUDY    35  33  92 CALM      30.29R
$$

REGIONAL REPORTS...ALBERTA

CITY           SKY/WX    TMP DP  RH WIND       PRES   REMARKS
EDMONTON       LGT SNOW  23  19  86 E9        30.06S VSB 5/8 WCI  13
CALGARY        FOG       30  28  93 E5        29.98R VSB 1/4
LETHBRIDGE     CLEAR     46  30  53 W26G32    29.96R
MEDICINE HAT   CLOUDY    34  30  86 E5        29.95F
WATERTON GATE    N/A     46  27  46 W24G36      N/A
CARDSTON         N/A     46  25  42 W13G21      N/A
MILK RIVER       N/A     41  30  65 W18         N/A
$$

REGIONAL REPORTS...SASKATCHEWAN

CITY           SKY/WX    TMP DP  RH WIND       PRES   REMARKS
SWIFT CURRENT  CLOUDY    21  21 100 E14       30.03F WCI   8
REGINA         CLOUDY    16  12  86 N5        30.17S
SASKATOON      CLOUDY    12   9  85 NE10      30.23S WCI  -1
CYPRESS HILLS    N/A     27  25  93 S8          N/A  WCI  18
VAL MARIE        N/A     28  28 100 SE9         N/A  WCI  20
ROCKGLEN         N/A     23  23 100 SE5         N/A
ASSINIBOIA       N/A     19  18  93 E9          N/A  WCI   9
$$



USA.gov is the U.S. government's official web portal to all federal, state and local government web resources and services.